Zurück zum Katalog

STARLINK-3259

AktivKommunikationVLEO
NORAD 50192·PAYLOAD·🇺🇸 United States

Gestartet Dec 18, 2021 von Vandenberg Space Force Base

Loading…

Nächste Überflüge (nächste 24 Stunden)

TLE

AktuellSource: CelesTrak SupGP

Epoche: Sep 14, 2026, 21:31 UTC

1 50192C 21125AN  26257.89701389  .00007945  00000+0  24124-3 0  2572
2 50192  53.1590 100.0270 0001206  88.8404 341.4722 15.33523911    10

Verfolge STARLINK-3259 in Echtzeit mit AllMySat

Download on the App Store